Main page
METAR-TAF:

METAR-TAF

Airports :

Houston Southwest Airport

Houston, Texas, United States

latitude: 29-30-22N, longitude: 095-28-37W, elevation: 69 ft

Current weather observation

The report was made 17 minutes ago, at 17:55 UTC
Wind 5 mph from the East/Southeast
Temperature 91°F
Humidity 56%
Pressure 29.94 in. Hg
Visibility: 10 miles
Scattered clouds at a height of 4100 ft
Scattered clouds at a height of 4900 ft

METAR: KAXH 151755Z AUTO 12004KT 10SM SCT041 SCT049 33/23 A2994 RMK AO2 T03300228 10334 20226

Time: 12:12 (18:12 UTC)


TAF: missing

Weather observations and forecasts of more than 4000 airports (METAR and TAF reports).

The available stations are represented by yellow and red dots on the map.

Hover mouse over dot to see the name of the station.

Then click to see weather observations and forecasts.

To change the map : click on the green buttons with a black cross to zoom in, on the green button with a dash to zoom out, or on the green arrows for adjacent maps.


METAR-TAF: